Theta_e
352 359 364 364 363 362 362 362 362 362 362 362 362 362 361 361 361 362 362 362 361 360 358 355 352 351 350 350 352 353 353 353 354 353 352 352 354 354 355 353 351 348 350
355 359 364 363 363 362 362 362 361 361 361 361 361 360 360 361 361 361 361 361 360 357 354 351 349 347 347 348 350 351 353 354 356 353 352 351 352 354 353 351 350 347 348
355 358 361 363 363 362 361 361 360 359 360 360 360 360 360 361 361 360 360 360 358 354 351 348 346 344 343 344 345 348 350 352 353 353 350 344 344 352 352 350 349 348 348
356 358 359 363 362 362 361 360 359 359 359 359 359 360 360 360 360 359 358 357 354 351 348 345 343 341 340 339 340 342 343 344 344 344 338 342 343 350 351 351 350 350 349
355 357 358 363 362 362 361 360 358 358 358 359 359 359 359 359 358 357 357 356 352 349 347 344 342 342 340 339 338 338 338 341 341 336 331 331 331 345 350 350 350 349 350
355 357 361 362 361 361 360 360 358 358 359 359 359 359 358 358 357 357 356 355 353 348 345 343 343 343 341 339 339 339 340 343 342 337 337 337 334 351 350 350 350 349 350
353 356 359 361 361 361 360 360 358 358 358 358 359 359 358 357 357 356 356 354 352 349 345 343 343 344 342 340 340 341 342 339 334 334 333 333 334 349 353 352 351 350 350
352 356 358 361 361 360 360 359 358 357 358 358 358 358 357 356 356 356 356 354 353 350 347 345 345 344 342 342 343 342 342 340 335 333 333 330 339 347 351 355 353 350 349
352 355 356 358 359 360 359 358 358 357 357 357 357 357 357 356 356 356 355 354 352 350 349 348 346 345 344 344 344 343 344 342 335 334 335 331 340 348 350 355 352 351 349
350 354 354 355 356 355 356 358 358 357 357 356 357 357 356 356 355 355 352 352 351 350 349 348 346 345 345 344 344 344 343 342 333 331 331 329 341 344 350 355 353 352 352
346 349 352 353 354 354 354 356 357 358 357 356 356 356 353 350 350 351 350 352 351 350 349 348 348 346 345 345 345 345 344 333 332 331 330 336 340 342 351 355 355 353 352
342 346 350 351 350 352 354 354 352 353 353 352 352 352 349 347 345 348 348 351 351 350 350 349 348 347 346 336 333 338 333 332 332 332 331 339 343 344 349 355 356 354 353
344 346 349 350 350 349 351 353 352 352 351 352 350 349 346 346 346 346 341 343 340 347 339 343 341 340 337 335 334 332 330 329 329 331 333 342 344 344 349 355 355 355 353
342 344 348 349 348 349 350 351 351 351 351 350 350 347 344 342 341 340 338 336 335 335 334 333 334 335 334 336 334 332 330 328 328 330 331 342 345 347 350 356 356 355 353
340 342 347 349 348 349 349 349 349 348 349 349 349 347 345 341 338 337 335 333 332 331 332 331 331 331 331 332 333 331 330 328 328 329 329 340 345 347 353 357 356 356 354
335 340 344 347 348 349 348 348 348 349 349 348 347 347 344 341 336 335 334 332 332 332 331 331 331 329 329 330 330 331 330 329 329 329 330 331 342 345 352 355 355 356 355
330 338 341 343 346 346 347 347 347 348 348 347 347 347 346 341 337 333 334 333 332 332 332 332 332 331 330 330 330 331 331 332 332 332 333 332 332 343 349 350 352 353 354
325 332 338 344 342 342 346 345 345 346 346 346 346 346 346 343 339 336 334 334 336 335 335 334 334 333 332 332 331 331 331 330 330 331 333 333 331 332 344 350 350 352 351
324 332 336 340 339 339 342 342 341 341 342 341 342 343 344 344 341 337 336 337 337 335 337 336 336 333 332 331 331 332 331 331 332 334 333 332 332 332 332 341 347 349 350
322 330 336 339 339 340 341 341 340 338 339 341 339 340 341 344 344 338 335 334 339 337 335 335 334 333 333 332 333 334 332 331 332 332 333 335 334 334 332 334 335 340 347
322 327 335 337 339 340 339 339 337 338 337 338 341 341 341 342 343 342 340 339 337 336 336 336 333 332 331 333 329 328 328 331 331 332 333 334 335 337 336 336 334 335 337
320 325 328 332 338 340 340 337 337 337 337 336 337 341 344 343 342 341 342 342 342 339 337 336 333 330 331 332 326 325 322 328 328 331 334 335 336 338 338 339 337 336 336
314 318 323 329 333 336 338 336 335 336 334 335 334 336 339 344 344 343 342 341 342 342 339 337 335 331 330 331 331 324 320 320 326 330 330 335 332 334 335 338 339 338 338
314 315 318 321 328 331 335 333 330 329 332 333 333 333 336 338 337 343 344 342 341 341 339 337 337 333 331 329 332 334 331 329 325 320 328 328 328 329 332 337 338 340 339
312 316 318 320 319 320 322 327 329 328 328 329 331 333 332 334 336 338 339 340 343 342 341 340 336 333 333 332 332 332 332 332 326 320 318 319 325 327 331 335 339 337 336
311 313 314 315 314 315 319 321 322 324 325 326 328 329 330 332 333 334 337 337 339 339 338 339 338 334 336 335 335 334 333 326 323 321 315 317 320 325 331 334 336 337 335
Wind_Speed
8 11 15 16 17 19 21 22 21 20 19 20 21 21 21 20 19 18 17 16 14 15 14 13 11 10 10 11 11 10 10 10 10 10 10 9 8 6 10 10 9 6 9
15 12 15 15 15 19 19 21 21 20 19 20 20 20 20 18 18 17 16 15 14 14 13 13 11 10 10 10 11 11 10 9 9 9 8 7 6 8 9 9 9 7 9
16 15 15 17 17 19 19 20 20 20 20 20 20 20 19 18 18 17 15 14 13 13 12 12 11 10 10 10 10 9 9 8 7 6 6 3 3 5 7 9 9 8 9
17 13 13 17 16 19 19 20 21 20 19 19 19 19 18 18 17 16 15 14 13 13 12 12 10 10 9 9 8 8 7 6 4 4 1 0 2 5 6 9 9 7 7
13 15 12 17 15 17 18 19 19 20 18 17 17 16 15 15 14 14 14 13 13 12 11 10 10 9 8 7 7 7 6 4 3 3 1 3 4 5 7 9 8 8 7
13 12 16 18 15 15 16 17 17 18 18 17 16 15 14 13 12 12 11 11 11 11 10 10 8 8 8 7 6 6 5 3 3 1 3 5 5 7 8 8 10 9 8
12 11 14 20 18 16 16 17 16 17 16 16 16 16 14 12 11 10 11 10 9 9 8 8 7 6 6 5 4 3 2 1 2 0 2 3 4 7 9 7 10 10 10
11 9 12 17 19 18 16 17 17 17 17 14 14 14 14 13 12 10 10 10 9 8 7 7 6 6 5 3 1 3 4 4 3 3 5 4 5 8 10 9 9 10 11
11 12 12 10 14 18 16 15 17 18 17 17 13 13 13 13 13 12 11 10 10 9 8 7 6 5 3 1 1 3 5 7 5 3 4 4 6 8 12 11 11 10 10
8 12 15 13 11 11 12 17 15 15 18 19 18 14 14 13 13 12 11 11 10 10 8 8 7 5 4 3 4 4 5 7 4 3 3 3 10 9 14 13 12 11 10
7 7 13 14 10 11 10 13 15 16 14 15 16 18 13 6 8 9 10 11 11 10 9 8 7 6 5 5 6 6 7 2 4 3 2 8 11 12 10 14 13 12 11
12 11 13 14 9 9 9 10 10 10 8 7 7 9 6 7 6 7 9 11 11 10 9 8 6 6 5 3 2 6 2 4 4 4 3 9 11 12 12 15 15 14 13
15 11 12 13 12 11 10 8 6 5 5 5 6 6 5 5 6 4 3 3 4 7 2 3 4 3 5 3 3 3 4 4 3 3 6 12 11 14 13 13 16 15 14
15 15 14 14 13 10 6 9 8 8 8 8 10 7 5 4 5 5 5 5 4 2 4 3 3 4 5 5 4 5 5 4 3 3 6 13 12 15 15 12 16 16 13
11 13 16 14 14 11 10 9 10 10 10 10 9 7 5 5 5 4 4 4 3 3 3 4 4 4 4 4 5 5 5 5 6 4 3 12 12 13 13 13 14 13 13
10 13 16 18 16 15 13 14 12 11 10 8 9 9 9 6 4 4 4 4 4 4 4 4 4 4 4 4 5 5 6 6 6 6 5 5 11 12 11 11 14 14 14
10 14 16 17 16 16 18 14 10 10 10 9 9 11 11 8 7 6 4 4 4 4 5 4 4 2 3 2 6 5 4 6 5 6 6 5 5 9 10 11 14 15 15
9 12 12 14 16 15 13 11 11 11 10 10 9 9 14 13 9 6 6 5 4 4 3 3 3 3 3 3 4 4 3 5 6 7 7 6 4 3 7 13 14 16 16
11 12 13 14 15 16 11 8 8 6 6 2 3 6 12 13 13 9 7 5 5 4 4 3 3 3 3 3 4 4 4 5 6 5 8 6 6 4 4 10 14 16 16
8 8 12 12 13 14 8 6 3 5 5 7 7 4 7 9 12 12 7 6 5 3 4 3 5 3 3 3 3 4 5 5 5 5 6 4 6 5 6 6 4 5 13
7 8 10 10 8 9 6 6 4 5 5 3 5 9 6 7 8 11 9 7 6 6 6 4 3 3 2 2 2 3 3 7 7 5 4 4 5 5 5 6 4 3 4
12 9 8 8 8 8 6 4 3 4 3 4 4 7 13 11 9 10 9 9 8 5 6 5 5 2 2 3 2 2 5 5 3 4 3 2 2 4 4 4 5 5 5
9 10 10 9 9 7 6 5 4 4 2 4 4 4 5 9 12 12 13 7 8 5 5 6 4 6 4 3 5 4 1 4 3 2 5 3 4 4 0 1 3 5 6
11 7 9 9 9 8 8 5 4 4 5 4 4 4 5 6 7 6 7 7 8 8 7 5 4 5 4 4 2 4 4 4 2 5 4 5 3 5 7 6 3 5 6
8 11 8 8 8 7 7 7 5 4 3 3 2 2 4 4 5 7 5 4 7 8 9 13 8 8 3 4 5 3 3 3 4 5 6 5 5 4 4 5 5 5 4
7 8 8 9 7 8 8 7 8 7 5 3 4 3 3 3 3 5 5 5 4 4 4 7 12 12 13 8 4 4 4 3 3 5 2 3 5 4 4 4 6 5 4
Wind_Direction
177 166 161 153 140 132 129 126 125 122 118 116 115 117 121 123 126 128 126 125 129 127 125 124 124 117 112 109 106 104 105 108 107 102 100 96 84 82 109 109 103 99 94
145 157 157 151 143 134 129 127 128 127 124 123 124 124 126 127 129 129 130 131 130 131 135 134 132 129 123 117 115 113 108 104 96 93 94 96 102 98 115 111 110 109 103
148 155 156 156 151 138 133 131 129 129 131 132 132 131 133 133 133 133 134 131 135 140 141 141 138 133 126 119 116 114 107 94 88 109 109 126 123 122 120 115 113 115 110
145 154 156 156 153 140 137 135 134 134 135 135 135 137 138 137 137 138 134 136 144 148 150 146 139 135 129 124 114 104 103 109 116 120 149 214 279 155 145 132 130 129 125
148 155 160 152 152 144 141 139 138 136 135 134 136 137 136 136 138 136 139 143 151 156 154 149 144 138 131 118 116 113 109 106 90 70 315 270 225 203 183 151 147 152 145
158 154 160 150 149 147 144 142 141 137 139 139 141 139 138 140 137 138 144 150 157 162 158 153 147 146 134 130 119 115 110 100 85 9 330 346 160 182 201 180 168 173 163
157 157 159 154 150 152 151 149 146 142 142 143 146 145 146 143 143 148 151 155 162 159 159 158 157 150 142 134 129 116 99 61 119 12 323 351 207 193 203 217 186 181 174
150 156 161 159 152 153 158 155 153 149 144 150 151 151 152 150 151 154 157 164 167 163 166 173 172 172 164 150 85 28 357 346 10 342 332 331 268 216 209 213 202 197 187
145 156 168 165 159 154 157 162 159 154 152 152 157 158 159 157 158 164 168 173 170 173 174 183 194 191 178 162 350 331 324 330 336 348 319 320 305 233 223 215 207 210 206
149 162 170 169 162 158 161 163 166 164 162 161 159 164 166 166 167 173 178 182 181 182 185 195 199 206 202 236 242 265 293 300 314 305 258 264 281 275 241 226 212 211 213
143 166 170 173 168 159 161 168 166 170 174 172 168 166 165 173 176 183 188 194 192 191 191 203 209 218 220 249 269 281 292 311 303 279 255 277 274 279 256 236 219 215 213
169 170 177 175 167 160 168 173 164 173 172 177 179 179 175 174 175 188 199 202 201 200 197 204 221 231 244 247 289 295 296 283 282 289 277 280 271 278 267 243 227 213 213
170 171 176 175 172 168 176 172 176 169 174 179 183 182 183 183 186 188 190 209 206 215 190 202 225 226 229 241 257 266 268 270 257 261 279 289 284 286 280 243 230 221 216
172 173 172 173 175 181 174 179 180 182 182 188 194 184 177 184 201 188 197 206 195 182 193 193 227 233 244 247 243 263 260 264 269 271 277 287 283 284 289 245 221 224 222
181 172 175 168 180 176 175 182 187 193 196 192 192 187 190 189 206 194 202 191 186 159 204 209 233 242 244 258 260 254 271 272 267 258 261 277 275 280 277 245 236 230 232
173 185 175 181 183 175 179 184 189 191 194 192 188 190 192 194 178 206 196 203 204 180 191 206 225 240 239 215 252 239 244 248 254 254 244 256 260 260 247 244 254 242 238
190 174 183 183 185 184 184 182 188 190 187 198 202 187 197 194 182 191 207 218 215 200 201 199 239 249 266 254 256 261 256 258 262 263 262 255 237 236 240 243 247 255 247
170 177 181 183 187 186 192 194 191 192 192 191 199 199 187 193 188 195 203 212 189 199 196 210 216 247 246 252 269 265 276 274 263 261 260 261 251 236 223 231 245 250 252
197 176 182 185 182 188 182 184 197 199 184 251 271 227 213 197 180 193 207 200 187 214 181 195 239 192 224 251 269 282 259 252 256 261 265 261 247 214 212 226 226 238 250
188 177 180 179 182 181 169 154 162 161 194 174 177 238 247 233 194 189 194 193 180 185 209 163 216 216 209 219 257 275 259 263 268 265 280 265 247 223 210 235 221 229 245
154 169 166 155 165 161 155 168 162 173 158 190 222 190 226 243 234 232 195 174 172 190 200 190 172 200 251 165 343 339 309 279 262 256 267 259 278 259 227 201 211 217 232
167 171 156 154 154 168 165 145 132 128 167 177 204 212 195 200 219 212 222 170 190 177 176 186 180 155 234 180 176 105 334 334 332 277 257 261 287 254 223 258 210 224 235
172 172 168 165 154 150 139 117 96 74 99 161 174 209 204 217 204 236 209 186 156 157 214 179 196 183 216 202 207 154 330 243 331 284 262 232 259 269 240 206 230 236 235
192 175 159 162 156 147 143 134 171 183 170 183 174 194 207 217 236 242 248 202 179 171 197 158 215 216 155 211 222 220 192 167 255 309 263 259 245 346 330 5 282 255 250
179 179 168 152 146 138 142 148 148 165 175 178 191 165 209 224 216 267 271 255 211 191 172 188 173 225 186 202 189 192 209 217 207 225 294 337 342 305 305 245 261 242 220
157 148 153 149 155 150 137 145 144 154 176 170 205 190 227 225 198 211 230 243 261 259 218 231 218 217 202 218 185 188 197 211 214 229 240 276 247 288 252 256 242 243 210